<?xml version="1.0" encoding="UTF-8" standalone="yes"?>
<gpx version="1.1" creator="MagicMaps Tour Explorer"
     xmlns:xsi="http://www.w3.org/2001/XMLSchema-instance"
     xmlns="http://www.topografix.com/GPX/1/1">
  <trk>
    <name>paternkofel_passpo_ks</name>
    <trkseg>
      <trkpt lat="46.611999706" lon="12.296381113">
        <ele>2318.9</ele>
        <time>1970-01-01T01:00:00</time>
      </trkpt>
      <trkpt lat="46.612072002" lon="12.296414012">
        <ele>2324.1</ele>
        <time>1970-01-01T01:00:00</time>
      </trkpt>
      <trkpt lat="46.612223002" lon="12.296415012">
        <ele>2326.0</ele>
        <time>1970-01-01T01:00:00</time>
      </trkpt>
      <trkpt lat="46.612964002" lon="12.296623012">
        <ele>2323.2</ele>
        <time>1970-01-01T01:00:00</time>
      </trkpt>
      <trkpt lat="46.613277002" lon="12.296585012">
        <ele>2324.1</ele>
        <time>1970-01-01T01:00:00</time>
      </trkpt>
      <trkpt lat="46.613614002" lon="12.297603012">
        <ele>2323.2</ele>
        <time>1970-01-01T01:00:00</time>
      </trkpt>
      <trkpt lat="46.613690002" lon="12.298212012">
        <ele>2322.2</ele>
        <time>1970-01-01T01:00:00</time>
      </trkpt>
      <trkpt lat="46.613670002" lon="12.298849012">
        <ele>2324.1</ele>
        <time>1970-01-01T01:00:00</time>
      </trkpt>
      <trkpt lat="46.613736002" lon="12.299491012">
        <ele>2323.2</ele>
        <time>1970-01-01T01:00:00</time>
      </trkpt>
      <trkpt lat="46.614124002" lon="12.300698012">
        <ele>2322.7</ele>
        <time>1970-01-01T01:00:00</time>
      </trkpt>
      <trkpt lat="46.614308002" lon="12.301773012">
        <ele>2319.3</ele>
        <time>1970-01-01T01:00:00</time>
      </trkpt>
      <trkpt lat="46.614247002" lon="12.302459012">
        <ele>2317.4</ele>
        <time>1970-01-01T01:00:00</time>
      </trkpt>
      <trkpt lat="46.614240002" lon="12.303759012">
        <ele>2313.1</ele>
        <time>1970-01-01T01:00:00</time>
      </trkpt>
      <trkpt lat="46.614215002" lon="12.304079012">
        <ele>2312.6</ele>
        <time>1970-01-01T01:00:00</time>
      </trkpt>
      <trkpt lat="46.614141002" lon="12.304338012">
        <ele>2312.6</ele>
        <time>1970-01-01T01:00:00</time>
      </trkpt>
      <trkpt lat="46.614012002" lon="12.304570012">
        <ele>2311.1</ele>
        <time>1970-01-01T01:00:00</time>
      </trkpt>
      <trkpt lat="46.613720002" lon="12.304908012">
        <ele>2308.7</ele>
        <time>1970-01-01T01:00:00</time>
      </trkpt>
      <trkpt lat="46.613618002" lon="12.305082012">
        <ele>2309.2</ele>
        <time>1970-01-01T01:00:00</time>
      </trkpt>
      <trkpt lat="46.613562002" lon="12.306474012">
        <ele>2314.5</ele>
        <time>1970-01-01T01:00:00</time>
      </trkpt>
      <trkpt lat="46.613493002" lon="12.306841012">
        <ele>2316.9</ele>
        <time>1970-01-01T01:00:00</time>
      </trkpt>
      <trkpt lat="46.613548002" lon="12.307369012">
        <ele>2317.9</ele>
        <time>1970-01-01T01:00:00</time>
      </trkpt>
      <trkpt lat="46.613954002" lon="12.308337012">
        <ele>2323.2</ele>
        <time>1970-01-01T01:00:00</time>
      </trkpt>
      <trkpt lat="46.614165002" lon="12.308460012">
        <ele>2324.1</ele>
        <time>1970-01-01T01:00:00</time>
      </trkpt>
      <trkpt lat="46.614951002" lon="12.308751012">
        <ele>2331.8</ele>
        <time>1970-01-01T01:00:00</time>
      </trkpt>
      <trkpt lat="46.615126002" lon="12.308860012">
        <ele>2332.8</ele>
        <time>1970-01-01T01:00:00</time>
      </trkpt>
      <trkpt lat="46.615278002" lon="12.309098012">
        <ele>2334.2</ele>
        <time>1970-01-01T01:00:00</time>
      </trkpt>
      <trkpt lat="46.615570002" lon="12.309429012">
        <ele>2336.6</ele>
        <time>1970-01-01T01:00:00</time>
      </trkpt>
      <trkpt lat="46.615906002" lon="12.309651012">
        <ele>2339.5</ele>
        <time>1970-01-01T01:00:00</time>
      </trkpt>
      <trkpt lat="46.616576002" lon="12.309934012">
        <ele>2342.4</ele>
        <time>1970-01-01T01:00:00</time>
      </trkpt>
      <trkpt lat="46.617270002" lon="12.310639012">
        <ele>2341.4</ele>
        <time>1970-01-01T01:00:00</time>
      </trkpt>
      <trkpt lat="46.617631002" lon="12.310830012">
        <ele>2344.3</ele>
        <time>1970-01-01T01:00:00</time>
      </trkpt>
      <trkpt lat="46.617833002" lon="12.311002012">
        <ele>2346.7</ele>
        <time>1970-01-01T01:00:00</time>
      </trkpt>
      <trkpt lat="46.618204002" lon="12.311526012">
        <ele>2349.6</ele>
        <time>1970-01-01T01:00:00</time>
      </trkpt>
      <trkpt lat="46.618185002" lon="12.311427012">
        <ele>2350.1</ele>
        <time>1970-01-01T01:00:00</time>
      </trkpt>
      <trkpt lat="46.618450002" lon="12.311242012">
        <ele>2353.4</ele>
        <time>1970-01-01T01:00:00</time>
      </trkpt>
      <trkpt lat="46.618548002" lon="12.310987012">
        <ele>2360.2</ele>
        <time>1970-01-01T01:00:00</time>
      </trkpt>
      <trkpt lat="46.618724002" lon="12.310854012">
        <ele>2367.4</ele>
        <time>1970-01-01T01:00:00</time>
      </trkpt>
      <trkpt lat="46.618920002" lon="12.310470012">
        <ele>2381.8</ele>
        <time>1970-01-01T01:00:00</time>
      </trkpt>
      <trkpt lat="46.619005002" lon="12.310446012">
        <ele>2384.7</ele>
        <time>1970-01-01T01:00:00</time>
      </trkpt>
      <trkpt lat="46.619060002" lon="12.310374012">
        <ele>2386.6</ele>
        <time>1970-01-01T01:00:00</time>
      </trkpt>
      <trkpt lat="46.619309002" lon="12.310293012">
        <ele>2393.3</ele>
        <time>1970-01-01T01:00:00</time>
      </trkpt>
      <trkpt lat="46.619466002" lon="12.310317012">
        <ele>2398.1</ele>
        <time>1970-01-01T01:00:00</time>
      </trkpt>
      <trkpt lat="46.619781002" lon="12.310251012">
        <ele>2407.3</ele>
        <time>1970-01-01T01:00:00</time>
      </trkpt>
      <trkpt lat="46.620170002" lon="12.310342012">
        <ele>2414.5</ele>
        <time>1970-01-01T01:00:00</time>
      </trkpt>
      <trkpt lat="46.620383002" lon="12.310352012">
        <ele>2419.3</ele>
        <time>1970-01-01T01:00:00</time>
      </trkpt>
      <trkpt lat="46.620382002" lon="12.310386012">
        <ele>2419.3</ele>
        <time>1970-01-01T01:00:00</time>
      </trkpt>
      <trkpt lat="46.620721002" lon="12.310459012">
        <ele>2425.1</ele>
        <time>1970-01-01T01:00:00</time>
      </trkpt>
      <trkpt lat="46.621018002" lon="12.310573012">
        <ele>2427.5</ele>
        <time>1970-01-01T01:00:00</time>
      </trkpt>
      <trkpt lat="46.621304002" lon="12.310730012">
        <ele>2433.2</ele>
        <time>1970-01-01T01:00:00</time>
      </trkpt>
      <trkpt lat="46.622018002" lon="12.311209012">
        <ele>2444.3</ele>
        <time>1970-01-01T01:00:00</time>
      </trkpt>
      <trkpt lat="46.622366002" lon="12.311500012">
        <ele>2454.4</ele>
        <time>1970-01-01T01:00:00</time>
      </trkpt>
      <trkpt lat="46.622535002" lon="12.311428012">
        <ele>2456.8</ele>
        <time>1970-01-01T01:00:00</time>
      </trkpt>
      <trkpt lat="46.622553002" lon="12.311467012">
        <ele>2456.8</ele>
        <time>1970-01-01T01:00:00</time>
      </trkpt>
      <trkpt lat="46.622634002" lon="12.311468012">
        <ele>2457.7</ele>
        <time>1970-01-01T01:00:00</time>
      </trkpt>
      <trkpt lat="46.622574002" lon="12.311464012">
        <ele>2456.8</ele>
        <time>1970-01-01T01:00:00</time>
      </trkpt>
      <trkpt lat="46.623365002" lon="12.311905012">
        <ele>2450.5</ele>
        <time>1970-01-01T01:00:00</time>
      </trkpt>
      <trkpt lat="46.623784002" lon="12.312241012">
        <ele>2442.8</ele>
        <time>1970-01-01T01:00:00</time>
      </trkpt>
      <trkpt lat="46.624052002" lon="12.312547012">
        <ele>2431.3</ele>
        <time>1970-01-01T01:00:00</time>
      </trkpt>
      <trkpt lat="46.624418002" lon="12.312906012">
        <ele>2421.7</ele>
        <time>1970-01-01T01:00:00</time>
      </trkpt>
      <trkpt lat="46.624715002" lon="12.313022012">
        <ele>2418.3</ele>
        <time>1970-01-01T01:00:00</time>
      </trkpt>
      <trkpt lat="46.624876002" lon="12.313007012">
        <ele>2417.4</ele>
        <time>1970-01-01T01:00:00</time>
      </trkpt>
      <trkpt lat="46.625096002" lon="12.312871012">
        <ele>2415.0</ele>
        <time>1970-01-01T01:00:00</time>
      </trkpt>
      <trkpt lat="46.626039002" lon="12.312777012">
        <ele>2403.9</ele>
        <time>1970-01-01T01:00:00</time>
      </trkpt>
      <trkpt lat="46.626265002" lon="12.312644012">
        <ele>2401.5</ele>
        <time>1970-01-01T01:00:00</time>
      </trkpt>
      <trkpt lat="46.626639002" lon="12.312320012">
        <ele>2401.0</ele>
        <time>1970-01-01T01:00:00</time>
      </trkpt>
      <trkpt lat="46.627239002" lon="12.311693012">
        <ele>2403.4</ele>
        <time>1970-01-01T01:00:00</time>
      </trkpt>
      <trkpt lat="46.627788002" lon="12.311452012">
        <ele>2399.1</ele>
        <time>1970-01-01T01:00:00</time>
      </trkpt>
      <trkpt lat="46.627913002" lon="12.311371012">
        <ele>2393.3</ele>
        <time>1970-01-01T01:00:00</time>
      </trkpt>
      <trkpt lat="46.628315002" lon="12.311356012">
        <ele>2384.2</ele>
        <time>1970-01-01T01:00:00</time>
      </trkpt>
      <trkpt lat="46.628329002" lon="12.311252012">
        <ele>2382.8</ele>
        <time>1970-01-01T01:00:00</time>
      </trkpt>
      <trkpt lat="46.628273002" lon="12.311139012">
        <ele>2379.9</ele>
        <time>1970-01-01T01:00:00</time>
      </trkpt>
      <trkpt lat="46.628508002" lon="12.310966012">
        <ele>2372.7</ele>
        <time>1970-01-01T01:00:00</time>
      </trkpt>
      <trkpt lat="46.628855002" lon="12.311026012">
        <ele>2365.9</ele>
        <time>1970-01-01T01:00:00</time>
      </trkpt>
      <trkpt lat="46.629110002" lon="12.310991012">
        <ele>2366.9</ele>
        <time>1970-01-01T01:00:00</time>
      </trkpt>
      <trkpt lat="46.629526002" lon="12.311030012">
        <ele>2366.4</ele>
        <time>1970-01-01T01:00:00</time>
      </trkpt>
      <trkpt lat="46.629702002" lon="12.310960012">
        <ele>2368.3</ele>
        <time>1970-01-01T01:00:00</time>
      </trkpt>
      <trkpt lat="46.630315002" lon="12.310558012">
        <ele>2370.7</ele>
        <time>1970-01-01T01:00:00</time>
      </trkpt>
      <trkpt lat="46.631372002" lon="12.310620012">
        <ele>2376.5</ele>
        <time>1970-01-01T01:00:00</time>
      </trkpt>
      <trkpt lat="46.631578002" lon="12.310662012">
        <ele>2377.5</ele>
        <time>1970-01-01T01:00:00</time>
      </trkpt>
      <trkpt lat="46.632290002" lon="12.311098012">
        <ele>2373.2</ele>
        <time>1970-01-01T01:00:00</time>
      </trkpt>
      <trkpt lat="46.633284002" lon="12.311511012">
        <ele>2370.7</ele>
        <time>1970-01-01T01:00:00</time>
      </trkpt>
      <trkpt lat="46.633494002" lon="12.311685012">
        <ele>2366.9</ele>
        <time>1970-01-01T01:00:00</time>
      </trkpt>
      <trkpt lat="46.633978002" lon="12.311877012">
        <ele>2359.7</ele>
        <time>1970-01-01T01:00:00</time>
      </trkpt>
      <trkpt lat="46.634137002" lon="12.311912012">
        <ele>2360.7</ele>
        <time>1970-01-01T01:00:00</time>
      </trkpt>
      <trkpt lat="46.634635002" lon="12.311616012">
        <ele>2365.9</ele>
        <time>1970-01-01T01:00:00</time>
      </trkpt>
      <trkpt lat="46.635149002" lon="12.311118012">
        <ele>2375.6</ele>
        <time>1970-01-01T01:00:00</time>
      </trkpt>
      <trkpt lat="46.635205002" lon="12.311257012">
        <ele>2378.0</ele>
        <time>1970-01-01T01:00:00</time>
      </trkpt>
      <trkpt lat="46.635194002" lon="12.311176012">
        <ele>2379.4</ele>
        <time>1970-01-01T01:00:00</time>
      </trkpt>
      <trkpt lat="46.635295002" lon="12.311024012">
        <ele>2382.8</ele>
        <time>1970-01-01T01:00:00</time>
      </trkpt>
      <trkpt lat="46.635324002" lon="12.311104012">
        <ele>2386.1</ele>
        <time>1970-01-01T01:00:00</time>
      </trkpt>
      <trkpt lat="46.635302002" lon="12.311194012">
        <ele>2387.6</ele>
        <time>1970-01-01T01:00:00</time>
      </trkpt>
      <trkpt lat="46.635576002" lon="12.310920012">
        <ele>2395.7</ele>
        <time>1970-01-01T01:00:00</time>
      </trkpt>
      <trkpt lat="46.635621002" lon="12.311044012">
        <ele>2396.7</ele>
        <time>1970-01-01T01:00:00</time>
      </trkpt>
      <trkpt lat="46.635877002" lon="12.311032012">
        <ele>2401.0</ele>
        <time>1970-01-01T01:00:00</time>
      </trkpt>
      <trkpt lat="46.636220002" lon="12.311094012">
        <ele>2399.1</ele>
        <time>1970-01-01T01:00:00</time>
      </trkpt>
      <trkpt lat="46.636361002" lon="12.311059012">
        <ele>2400.1</ele>
        <time>1970-01-01T01:00:00</time>
      </trkpt>
      <trkpt lat="46.636501002" lon="12.310936012">
        <ele>2403.0</ele>
        <time>1970-01-01T01:00:00</time>
      </trkpt>
      <trkpt lat="46.636580002" lon="12.310944012">
        <ele>2405.4</ele>
        <time>1970-01-01T01:00:00</time>
      </trkpt>
      <trkpt lat="46.636544002" lon="12.311103012">
        <ele>2408.2</ele>
        <time>1970-01-01T01:00:00</time>
      </trkpt>
      <trkpt lat="46.636628002" lon="12.311273012">
        <ele>2409.7</ele>
        <time>1970-01-01T01:00:00</time>
      </trkpt>
      <trkpt lat="46.636718002" lon="12.311247012">
        <ele>2411.1</ele>
        <time>1970-01-01T01:00:00</time>
      </trkpt>
      <trkpt lat="46.636710002" lon="12.311493012">
        <ele>2414.0</ele>
        <time>1970-01-01T01:00:00</time>
      </trkpt>
      <trkpt lat="46.636608002" lon="12.311720012">
        <ele>2419.3</ele>
        <time>1970-01-01T01:00:00</time>
      </trkpt>
      <trkpt lat="46.636466002" lon="12.311814012">
        <ele>2421.7</ele>
        <time>1970-01-01T01:00:00</time>
      </trkpt>
      <trkpt lat="46.636271002" lon="12.311823012">
        <ele>2421.2</ele>
        <time>1970-01-01T01:00:00</time>
      </trkpt>
      <trkpt lat="46.636264002" lon="12.311878012">
        <ele>2421.7</ele>
        <time>1970-01-01T01:00:00</time>
      </trkpt>
      <trkpt lat="46.636080002" lon="12.311985012">
        <ele>2425.5</ele>
        <time>1970-01-01T01:00:00</time>
      </trkpt>
      <trkpt lat="46.635924002" lon="12.312233012">
        <ele>2435.2</ele>
        <time>1970-01-01T01:00:00</time>
      </trkpt>
      <trkpt lat="46.635701002" lon="12.312279012">
        <ele>2440.4</ele>
        <time>1970-01-01T01:00:00</time>
      </trkpt>
      <trkpt lat="46.635522002" lon="12.312377012">
        <ele>2443.8</ele>
        <time>1970-01-01T01:00:00</time>
      </trkpt>
      <trkpt lat="46.635443002" lon="12.312455012">
        <ele>2443.8</ele>
        <time>1970-01-01T01:00:00</time>
      </trkpt>
      <trkpt lat="46.635083002" lon="12.312511012">
        <ele>2445.7</ele>
        <time>1970-01-01T01:00:00</time>
      </trkpt>
      <trkpt lat="46.634829002" lon="12.312885012">
        <ele>2447.7</ele>
        <time>1970-01-01T01:00:00</time>
      </trkpt>
      <trkpt lat="46.634809002" lon="12.312838012">
        <ele>2447.2</ele>
        <time>1970-01-01T01:00:00</time>
      </trkpt>
      <trkpt lat="46.634602002" lon="12.312919012">
        <ele>2446.7</ele>
        <time>1970-01-01T01:00:00</time>
      </trkpt>
      <trkpt lat="46.634500002" lon="12.313080012">
        <ele>2443.8</ele>
        <time>1970-01-01T01:00:00</time>
      </trkpt>
      <trkpt lat="46.634511002" lon="12.313061012">
        <ele>2440.4</ele>
        <time>1970-01-01T01:00:00</time>
      </trkpt>
      <trkpt lat="46.634539002" lon="12.313072012">
        <ele>2441.9</ele>
        <time>1970-01-01T01:00:00</time>
      </trkpt>
      <trkpt lat="46.634497002" lon="12.313013012">
        <ele>2441.4</ele>
        <time>1970-01-01T01:00:00</time>
      </trkpt>
      <trkpt lat="46.634431002" lon="12.312995012">
        <ele>2439.5</ele>
        <time>1970-01-01T01:00:00</time>
      </trkpt>
      <trkpt lat="46.634259013" lon="12.313125459">
        <ele>2408.1</ele>
        <time>1970-01-01T01:00:00</time>
      </trkpt>
      <trkpt lat="46.634039002" lon="12.313148012">
        <ele>2455.3</ele>
        <time>1970-01-01T01:00:00</time>
      </trkpt>
      <trkpt lat="46.633976002" lon="12.313258012">
        <ele>2457.3</ele>
        <time>1970-01-01T01:00:00</time>
      </trkpt>
      <trkpt lat="46.634020002" lon="12.313295012">
        <ele>2461.1</ele>
        <time>1970-01-01T01:00:00</time>
      </trkpt>
      <trkpt lat="46.633949002" lon="12.313401012">
        <ele>2461.6</ele>
        <time>1970-01-01T01:00:00</time>
      </trkpt>
      <trkpt lat="46.633863002" lon="12.313316012">
        <ele>2465.4</ele>
        <time>1970-01-01T01:00:00</time>
      </trkpt>
      <trkpt lat="46.633794002" lon="12.313354012">
        <ele>2466.9</ele>
        <time>1970-01-01T01:00:00</time>
      </trkpt>
      <trkpt lat="46.633765002" lon="12.313452012">
        <ele>2470.2</ele>
        <time>1970-01-01T01:00:00</time>
      </trkpt>
      <trkpt lat="46.633689002" lon="12.313505012">
        <ele>2473.1</ele>
        <time>1970-01-01T01:00:00</time>
      </trkpt>
      <trkpt lat="46.633661002" lon="12.313277012">
        <ele>2472.6</ele>
        <time>1970-01-01T01:00:00</time>
      </trkpt>
      <trkpt lat="46.633667002" lon="12.313376012">
        <ele>2472.6</ele>
        <time>1970-01-01T01:00:00</time>
      </trkpt>
      <trkpt lat="46.631375002" lon="12.315041012">
        <ele>2544.7</ele>
        <time>1970-01-01T01:00:00</time>
      </trkpt>
      <trkpt lat="46.631402002" lon="12.315118012">
        <ele>2543.8</ele>
        <time>1970-01-01T01:00:00</time>
      </trkpt>
      <trkpt lat="46.631341002" lon="12.315126012">
        <ele>2543.3</ele>
        <time>1970-01-01T01:00:00</time>
      </trkpt>
      <trkpt lat="46.631348002" lon="12.315082012">
        <ele>2546.7</ele>
        <time>1970-01-01T01:00:00</time>
      </trkpt>
      <trkpt lat="46.631267002" lon="12.315112012">
        <ele>2553.4</ele>
        <time>1970-01-01T01:00:00</time>
      </trkpt>
      <trkpt lat="46.631344002" lon="12.314959012">
        <ele>2561.1</ele>
        <time>1970-01-01T01:00:00</time>
      </trkpt>
      <trkpt lat="46.631231002" lon="12.314944012">
        <ele>2569.3</ele>
        <time>1970-01-01T01:00:00</time>
      </trkpt>
      <trkpt lat="46.631118002" lon="12.315025012">
        <ele>2572.6</ele>
        <time>1970-01-01T01:00:00</time>
      </trkpt>
      <trkpt lat="46.631170002" lon="12.315072012">
        <ele>2574.1</ele>
        <time>1970-01-01T01:00:00</time>
      </trkpt>
      <trkpt lat="46.630873002" lon="12.315410012">
        <ele>2592.8</ele>
        <time>1970-01-01T01:00:00</time>
      </trkpt>
      <trkpt lat="46.630803002" lon="12.315545012">
        <ele>2602.9</ele>
        <time>1970-01-01T01:00:00</time>
      </trkpt>
      <trkpt lat="46.630708002" lon="12.315752012">
        <ele>2611.1</ele>
        <time>1970-01-01T01:00:00</time>
      </trkpt>
      <trkpt lat="46.630577002" lon="12.315852012">
        <ele>2617.8</ele>
        <time>1970-01-01T01:00:00</time>
      </trkpt>
      <trkpt lat="46.630671002" lon="12.315884012">
        <ele>2620.7</ele>
        <time>1970-01-01T01:00:00</time>
      </trkpt>
      <trkpt lat="46.630486002" lon="12.315952012">
        <ele>2627.4</ele>
        <time>1970-01-01T01:00:00</time>
      </trkpt>
      <trkpt lat="46.630429002" lon="12.316055012">
        <ele>2631.3</ele>
        <time>1970-01-01T01:00:00</time>
      </trkpt>
      <trkpt lat="46.630447002" lon="12.316097012">
        <ele>2635.6</ele>
        <time>1970-01-01T01:00:00</time>
      </trkpt>
      <trkpt lat="46.630318002" lon="12.316053012">
        <ele>2639.0</ele>
        <time>1970-01-01T01:00:00</time>
      </trkpt>
      <trkpt lat="46.630365002" lon="12.316035012">
        <ele>2642.3</ele>
        <time>1970-01-01T01:00:00</time>
      </trkpt>
      <trkpt lat="46.630156048" lon="12.315879722">
        <ele>2696.1</ele>
        <time>1970-01-01T01:00:00</time>
      </trkpt>
      <trkpt lat="46.630136002" lon="12.315992012">
        <ele>2642.8</ele>
        <time>1970-01-01T01:00:00</time>
      </trkpt>
      <trkpt lat="46.630094002" lon="12.316353012">
        <ele>2652.4</ele>
        <time>1970-01-01T01:00:00</time>
      </trkpt>
      <trkpt lat="46.629995002" lon="12.316406012">
        <ele>2651.5</ele>
        <time>1970-01-01T01:00:00</time>
      </trkpt>
      <trkpt lat="46.629865002" lon="12.316643012">
        <ele>2651.0</ele>
        <time>1970-01-01T01:00:00</time>
      </trkpt>
      <trkpt lat="46.629906002" lon="12.316408012">
        <ele>2656.3</ele>
        <time>1970-01-01T01:00:00</time>
      </trkpt>
      <trkpt lat="46.629824002" lon="12.316667012">
        <ele>2657.7</ele>
        <time>1970-01-01T01:00:00</time>
      </trkpt>
      <trkpt lat="46.629927002" lon="12.316765012">
        <ele>2664.4</ele>
        <time>1970-01-01T01:00:00</time>
      </trkpt>
      <trkpt lat="46.629920002" lon="12.316612012">
        <ele>2664.9</ele>
        <time>1970-01-01T01:00:00</time>
      </trkpt>
      <trkpt lat="46.629758002" lon="12.315994012">
        <ele>2692.3</ele>
        <time>1970-01-01T01:00:00</time>
      </trkpt>
      <trkpt lat="46.629973002" lon="12.316029012">
        <ele>2698.1</ele>
        <time>1970-01-01T01:00:00</time>
      </trkpt>
      <trkpt lat="46.629955002" lon="12.315959012">
        <ele>2700.5</ele>
        <time>1970-01-01T01:00:00</time>
      </trkpt>
      <trkpt lat="46.629968002" lon="12.315988012">
        <ele>2701.4</ele>
        <time>1970-01-01T01:00:00</time>
      </trkpt>
      <trkpt lat="46.629975002" lon="12.315953012">
        <ele>2703.8</ele>
        <time>1970-01-01T01:00:00</time>
      </trkpt>
      <trkpt lat="46.630035002" lon="12.315973012">
        <ele>2706.2</ele>
        <time>1970-01-01T01:00:00</time>
      </trkpt>
      <trkpt lat="46.629952002" lon="12.315916012">
        <ele>2709.1</ele>
        <time>1970-01-01T01:00:00</time>
      </trkpt>
      <trkpt lat="46.629928002" lon="12.315836012">
        <ele>2711.5</ele>
        <time>1970-01-01T01:00:00</time>
      </trkpt>
      <trkpt lat="46.629859002" lon="12.315836012">
        <ele>2712.0</ele>
        <time>1970-01-01T01:00:00</time>
      </trkpt>
      <trkpt lat="46.629880002" lon="12.315696012">
        <ele>2720.7</ele>
        <time>1970-01-01T01:00:00</time>
      </trkpt>
      <trkpt lat="46.629754002" lon="12.315597012">
        <ele>2723.6</ele>
        <time>1970-01-01T01:00:00</time>
      </trkpt>
      <trkpt lat="46.630023002" lon="12.315486012">
        <ele>2731.7</ele>
        <time>1970-01-01T01:00:00</time>
      </trkpt>
      <trkpt lat="46.630018002" lon="12.315440012">
        <ele>2732.7</ele>
        <time>1970-01-01T01:00:00</time>
      </trkpt>
      <trkpt lat="46.630334002" lon="12.315239012">
        <ele>2746.1</ele>
        <time>1970-01-01T01:00:00</time>
      </trkpt>
      <trkpt lat="46.630352002" lon="12.315169012">
        <ele>2749.5</ele>
        <time>1970-01-01T01:00:00</time>
      </trkpt>
      <trkpt lat="46.630420002" lon="12.315157012">
        <ele>2751.4</ele>
        <time>1970-01-01T01:00:00</time>
      </trkpt>
      <trkpt lat="46.630362002" lon="12.315114012">
        <ele>2751.4</ele>
        <time>1970-01-01T01:00:00</time>
      </trkpt>
      <trkpt lat="46.630351002" lon="12.315203012">
        <ele>2750.0</ele>
        <time>1970-01-01T01:00:00</time>
      </trkpt>
      <trkpt lat="46.630014002" lon="12.315437012">
        <ele>2735.1</ele>
        <time>1970-01-01T01:00:00</time>
      </trkpt>
      <trkpt lat="46.629949002" lon="12.315515012">
        <ele>2729.3</ele>
        <time>1970-01-01T01:00:00</time>
      </trkpt>
      <trkpt lat="46.629889002" lon="12.315546012">
        <ele>2728.8</ele>
        <time>1970-01-01T01:00:00</time>
      </trkpt>
      <trkpt lat="46.629911002" lon="12.315609012">
        <ele>2725.0</ele>
        <time>1970-01-01T01:00:00</time>
      </trkpt>
      <trkpt lat="46.629832002" lon="12.315644012">
        <ele>2722.6</ele>
        <time>1970-01-01T01:00:00</time>
      </trkpt>
      <trkpt lat="46.629866002" lon="12.315685012">
        <ele>2720.7</ele>
        <time>1970-01-01T01:00:00</time>
      </trkpt>
      <trkpt lat="46.629739002" lon="12.315746012">
        <ele>2718.3</ele>
        <time>1970-01-01T01:00:00</time>
      </trkpt>
      <trkpt lat="46.629925002" lon="12.315824012">
        <ele>2713.0</ele>
        <time>1970-01-01T01:00:00</time>
      </trkpt>
      <trkpt lat="46.630016002" lon="12.315998012">
        <ele>2708.2</ele>
        <time>1970-01-01T01:00:00</time>
      </trkpt>
      <trkpt lat="46.629947002" lon="12.315971012">
        <ele>2703.4</ele>
        <time>1970-01-01T01:00:00</time>
      </trkpt>
      <trkpt lat="46.629658002" lon="12.316114012">
        <ele>2680.3</ele>
        <time>1970-01-01T01:00:00</time>
      </trkpt>
      <trkpt lat="46.629776002" lon="12.316113012">
        <ele>2679.8</ele>
        <time>1970-01-01T01:00:00</time>
      </trkpt>
      <trkpt lat="46.629807002" lon="12.316155012">
        <ele>2676.0</ele>
        <time>1970-01-01T01:00:00</time>
      </trkpt>
      <trkpt lat="46.629719002" lon="12.316296012">
        <ele>2667.8</ele>
        <time>1970-01-01T01:00:00</time>
      </trkpt>
      <trkpt lat="46.629747002" lon="12.316387012">
        <ele>2667.8</ele>
        <time>1970-01-01T01:00:00</time>
      </trkpt>
      <trkpt lat="46.629849002" lon="12.316357012">
        <ele>2667.3</ele>
        <time>1970-01-01T01:00:00</time>
      </trkpt>
      <trkpt lat="46.629839002" lon="12.316462012">
        <ele>2661.5</ele>
        <time>1970-01-01T01:00:00</time>
      </trkpt>
      <trkpt lat="46.629941002" lon="12.316608012">
        <ele>2655.8</ele>
        <time>1970-01-01T01:00:00</time>
      </trkpt>
      <trkpt lat="46.629845002" lon="12.316755012">
        <ele>2655.3</ele>
        <time>1970-01-01T01:00:00</time>
      </trkpt>
      <trkpt lat="46.629636936" lon="12.316710250">
        <ele>2633.9</ele>
        <time>1970-01-01T01:00:00</time>
      </trkpt>
      <trkpt lat="46.629259597" lon="12.316687175">
        <ele>2602.1</ele>
        <time>1970-01-01T01:00:00</time>
      </trkpt>
      <trkpt lat="46.628945148" lon="12.316667946">
        <ele>2576.5</ele>
      </trkpt>
      <trkpt lat="46.628707115" lon="12.316496617">
        <ele>2567.9</ele>
      </trkpt>
      <trkpt lat="46.628472109" lon="12.316220959">
        <ele>2567.6</ele>
      </trkpt>
      <trkpt lat="46.628148773" lon="12.315887646">
        <ele>2573.7</ele>
      </trkpt>
      <trkpt lat="46.627787985" lon="12.315604304">
        <ele>2559.8</ele>
      </trkpt>
      <trkpt lat="46.627540966" lon="12.315432434">
        <ele>2557.7</ele>
      </trkpt>
      <trkpt lat="46.627165140" lon="12.315357206">
        <ele>2543.0</ele>
      </trkpt>
      <trkpt lat="46.626796028" lon="12.315360774">
        <ele>2531.5</ele>
      </trkpt>
      <trkpt lat="46.626410461" lon="12.315311080">
        <ele>2531.7</ele>
      </trkpt>
      <trkpt lat="46.626232289" lon="12.315247934">
        <ele>2532.1</ele>
      </trkpt>
      <trkpt lat="46.625786952" lon="12.314776548">
        <ele>2504.7</ele>
      </trkpt>
      <trkpt lat="46.625687369" lon="12.314796590">
        <ele>2505.1</ele>
      </trkpt>
      <trkpt lat="46.625258393" lon="12.314691995">
        <ele>2493.8</ele>
      </trkpt>
      <trkpt lat="46.624905736" lon="12.314748827">
        <ele>2498.3</ele>
      </trkpt>
      <trkpt lat="46.624675834" lon="12.314917668">
        <ele>2511.9</ele>
      </trkpt>
      <trkpt lat="46.624431746" lon="12.314955006">
        <ele>2514.9</ele>
      </trkpt>
      <trkpt lat="46.624201937" lon="12.314810329">
        <ele>2498.6</ele>
      </trkpt>
      <trkpt lat="46.624031992" lon="12.314773818">
        <ele>2497.2</ele>
      </trkpt>
      <trkpt lat="46.623936191" lon="12.314663457">
        <ele>2489.0</ele>
      </trkpt>
      <trkpt lat="46.623668175" lon="12.314594828">
        <ele>2489.0</ele>
      </trkpt>
      <trkpt lat="46.623527452" lon="12.314481724">
        <ele>2485.7</ele>
      </trkpt>
      <trkpt lat="46.623499350" lon="12.313278190">
        <ele>2462.2</ele>
      </trkpt>
      <trkpt lat="46.623428320" lon="12.312934209">
        <ele>2459.6</ele>
      </trkpt>
      <trkpt lat="46.623279367" lon="12.312794481">
        <ele>2458.8</ele>
      </trkpt>
      <trkpt lat="46.622922350" lon="12.312380787">
        <ele>2452.8</ele>
      </trkpt>
      <trkpt lat="46.622674569" lon="12.312235028">
        <ele>2448.9</ele>
      </trkpt>
      <trkpt lat="46.622623600" lon="12.312440924">
        <ele>2446.0</ele>
      </trkpt>
      <trkpt lat="46.622716292" lon="12.312969105">
        <ele>2442.5</ele>
      </trkpt>
      <trkpt lat="46.622674974" lon="12.313462977">
        <ele>2437.5</ele>
      </trkpt>
      <trkpt lat="46.622574544" lon="12.313822607">
        <ele>2432.2</ele>
      </trkpt>
      <trkpt lat="46.622354293" lon="12.314279419">
        <ele>2428.6</ele>
      </trkpt>
      <trkpt lat="46.621993980" lon="12.314910550">
        <ele>2419.0</ele>
      </trkpt>
      <trkpt lat="46.621737882" lon="12.315051655">
        <ele>2408.4</ele>
      </trkpt>
      <trkpt lat="46.621362811" lon="12.314950361">
        <ele>2398.9</ele>
      </trkpt>
      <trkpt lat="46.620988497" lon="12.314822989">
        <ele>2394.3</ele>
      </trkpt>
      <trkpt lat="46.620733521" lon="12.313684030">
        <ele>2379.7</ele>
      </trkpt>
      <trkpt lat="46.620557880" lon="12.312602177">
        <ele>2367.3</ele>
      </trkpt>
      <trkpt lat="46.620382059" lon="12.312147318">
        <ele>2364.0</ele>
      </trkpt>
      <trkpt lat="46.620267530" lon="12.312061952">
        <ele>2361.5</ele>
      </trkpt>
      <trkpt lat="46.619703030" lon="12.311975242">
        <ele>2353.0</ele>
      </trkpt>
      <trkpt lat="46.619226106" lon="12.311972254">
        <ele>2346.6</ele>
      </trkpt>
      <trkpt lat="46.618812828" lon="12.311947027">
        <ele>2344.4</ele>
      </trkpt>
      <trkpt lat="46.618424991" lon="12.311975601">
        <ele>2343.4</ele>
      </trkpt>
      <trkpt lat="46.618150339" lon="12.311514730">
        <ele>2345.6</ele>
      </trkpt>
      <trkpt lat="46.617806078" lon="12.310971246">
        <ele>2348.4</ele>
      </trkpt>
      <trkpt lat="46.617522357" lon="12.310823315">
        <ele>2345.3</ele>
      </trkpt>
      <trkpt lat="46.617190774" lon="12.310463479">
        <ele>2347.6</ele>
      </trkpt>
      <trkpt lat="46.616838954" lon="12.310180782">
        <ele>2346.3</ele>
      </trkpt>
      <trkpt lat="46.616522315" lon="12.309926359">
        <ele>2346.7</ele>
      </trkpt>
      <trkpt lat="46.616095599" lon="12.309743593">
        <ele>2345.4</ele>
      </trkpt>
      <trkpt lat="46.615777449" lon="12.309541328">
        <ele>2345.0</ele>
      </trkpt>
      <trkpt lat="46.615087318" lon="12.308820056">
        <ele>2339.8</ele>
      </trkpt>
      <trkpt lat="46.614695781" lon="12.308665571">
        <ele>2334.9</ele>
      </trkpt>
      <trkpt lat="46.614358151" lon="12.308514376">
        <ele>2330.4</ele>
      </trkpt>
      <trkpt lat="46.614010780" lon="12.308388710">
        <ele>2322.6</ele>
      </trkpt>
      <trkpt lat="46.613770541" lon="12.307982238">
        <ele>2315.5</ele>
      </trkpt>
      <trkpt lat="46.613539426" lon="12.306949406">
        <ele>2311.5</ele>
      </trkpt>
      <trkpt lat="46.613608491" lon="12.306117722">
        <ele>2311.6</ele>
      </trkpt>
      <trkpt lat="46.613646825" lon="12.305414772">
        <ele>2309.2</ele>
      </trkpt>
      <trkpt lat="46.613871565" lon="12.304801538">
        <ele>2304.0</ele>
      </trkpt>
      <trkpt lat="46.614171192" lon="12.304088371">
        <ele>2309.2</ele>
      </trkpt>
      <trkpt lat="46.614175084" lon="12.303331072">
        <ele>2309.6</ele>
      </trkpt>
      <trkpt lat="46.614197110" lon="12.301634487">
        <ele>2320.0</ele>
      </trkpt>
      <trkpt lat="46.614063260" lon="12.300659835">
        <ele>2325.1</ele>
      </trkpt>
      <trkpt lat="46.613728783" lon="12.299464014">
        <ele>2327.1</ele>
      </trkpt>
      <trkpt lat="46.613544109" lon="12.297754881">
        <ele>2323.4</ele>
      </trkpt>
      <trkpt lat="46.613241777" lon="12.296691651">
        <ele>2330.3</ele>
      </trkpt>
      <trkpt lat="46.612749889" lon="12.296583406">
        <ele>2328.3</ele>
      </trkpt>
      <trkpt lat="46.612204845" lon="12.296445815">
        <ele>2322.9</ele>
      </trkpt>
      <trkpt lat="46.612069326" lon="12.296463704">
        <ele>2320.3</ele>
      </trkpt>
    </trkseg>
  </trk>
</gpx>
